Regional Weather Roundup
Issued by NWS

Home | Current Version | Previous Version | Text Only | Print | Product List | Glossary On
Versions: 1 2 3 4 5 6 7 8 9 10 11 12 13 14 15 16 17 18 19 20 21 22 23 24 25 26 27 28 29 30 31 32 33 34 35 36 37 38 39 40 41 42 43 44 45 46 47 48 49 50
000
ASUS42 KTBW 271416
RWRFL
FLORIDA REGIONAL WEATHER ROUNDUP
NATIONAL WEATHER SERVICE TAMPA BAY RUSKIN FL
1000 AM EDT TUE SEP 27 2016

NOTE: "FAIR" INDICATES FEW OR NO CLOUDS BELOW 12,000 FEET WITH NO
SIGNIFICANT WEATHER AND/OR OBSTRUCTIONS TO VISIBILITY.

FLZ001>010-012>015-112-114-115-271500-
PANHANDLE FLORIDA

CITY           SKY/WX    TMP DP  RH WIND       PRES   REMARKS
PENSACOLA      MOSUNNY   80  70  71 CALM      29.95R
CRESTVIEW      SUNNY     75  71  87 VRB3      29.98R
DUKE FIELD     MOSUNNY   75  71  86 VRB2      29.97R
VALPARAISO     MOSUNNY   79  67  66 NE5       29.95R
MARY ESTHER    SUNNY     79  66  65 E5        29.95R
TRI COUNTY     FAIR      75  70  84 E3        29.97R
PANAMA CITY    SUNNY     75  72  88 CALM      29.96R
TYNDALL AFB    MOSUNNY   78  71  81 NE3       29.96R
APALACHICOLA   SUNNY     79  75  87 E3        29.96R

STATION/POSITION SKY/WX   TEMP    WIND        PRES    WAVE   SWELL
                          AIR SEA DIR/SP/G            HT/PER HT/PER
                          (F)     (DEG/KT/KT) (MB)    (FT/S) (FT/S)
30.1N   87.6W              83 85  130/  2/  4 1014.0R   1
29.2N   88.2W              82 85  310/  4/  6 1013.5R
28.8N   86.0W              84 85              1014.7R   2/ 6   2/ 6
PANAMA CITY BEAC           76 85   80/  2/  6 1014.5R
TOWER C                    81      60/  5/  5 1015.0R
28.5N   84.5W              84 85   10/  4/  6 1014.3R   1/ 6   2/ 6

$$
FLZ011-016>038-118-127-128-134-139-239-271500-
NORTH FLORIDA

CITY           SKY/WX    TMP DP  RH WIND       PRES   REMARKS
MARIANNA       MOSUNNY   78  72  81 SE3       29.95S
TALLAHASSEE    MOSUNNY   78  72  81 E3        29.97R
PERRY          SUNNY     77  72  84 SE3       29.98R
CROSS CITY     MOSUNNY   77  72  83 E3        29.97S
LAKE CITY      FAIR      73  73 100 CALM      29.97R
GAINESVILLE    SUNNY     80  72  76 N3        29.97R
WILLISTON      SUNNY     82  73  74 MISG      29.97R
MAYPORT NAS    PTSUNNY   79  73  82 NW5       29.94R
JACKSONVILLE   PTSUNNY   78  74  87 VRB5      29.94S
JAX NAS        PTSUNNY   80  71  74 NW6       29.95S
FERNANDINA BEA FAIR      81  75  83 N7        29.93R
ST AUGUSTINE   MOSUNNY   77  72  84 W5        29.96R

STATION/POSITION SKY/WX   TEMP    WIND        PRES    WAVE   SWELL
                          AIR SEA DIR/SP/G            HT/PER HT/PER
                          (F)     (DEG/KT/KT) (MB)    (FT/S) (FT/S)
SHELL POINT                76      60/  3/  6 1013.3
KEATON BEACH               77      70/  5/  6 1014.4R
CEDAR KEY                  77      70/  3/  4 1014.7R
FERNANDINA                 76 84  330/  3/  7 1013.7R
30.7N   81.3W                 82                N/A     3/10
MAYPORT                    74 83  300/  6/  8 1014.0R
31.4N   80.9W              77 82   20/ 10/ 12 1013.7R   2/ 5   2/ 5
ST AUGUSTINE               78 83  340/  8/ 10 1014.9R

$$
FLZ040-043>046-052-053-057-058-063-144-271500-
INTERIOR CENTRAL FLORIDA

CITY           SKY/WX    TMP DP  RH WIND       PRES   REMARKS
OCALA          SUNNY     77  70  78 CALM      29.97R
THE VILLAGES     N/A     81  79  94 CALM      29.87R
LEESBURG       SUNNY     79  71  76 NW5       29.97R
SANFORD        SUNNY     79  71  76 W6        29.95S
ORLANDO EXEC   SUNNY     79  73  82 SW6       29.95S
ORLANDO INTL   MOSUNNY   80  72  76 SW5       29.95F
KISSIMMEE      SUNNY     80  75  84 W5        29.97S
WINTER HAVEN   SUNNY     80  72  76 VRB5      29.97S
LAKELAND       SUNNY     79  73  83 CALM      29.97S
BARTOW         SUNNY     77  73  88 VRB3      29.97S
OKEECHOBEE     SUNNY     79  72  78 CALM      29.97S

$$
FLZ041-047-054-059-064-141-147-271500-
EAST CENTRAL FLORIDA

CITY           SKY/WX    TMP DP  RH WIND       PRES   REMARKS
ORMOND BEACH   PTSUNNY   77  75  94 NW5       29.95S
DAYTONA BEACH  PTSUNNY   77  73  87 NW5       29.95R
DELAND         MOSUNNY   79  73  83 NW7       29.95S
NEW SMYRNA BEA SUNNY     79  72  78 NW7       29.95S
JFK SPACE CTR  SUNNY     81  71  70 CALM      29.94S
TITUSVILLE     SUNNY     79  73  83 W6        29.96R
CAPE CANAVERAL SUNNY     83  70  64 W8        29.94R
PATRICK AFB    SUNNY     82  69  64 W6        29.95R
MELBOURNE      SUNNY     81  70  69 W6        29.95S
VERO BEACH     SUNNY     83  71  67 VRB5      29.96S
FT PIERCE      SUNNY     82  72  71 NW5       29.96S
STUART         PTSUNNY   82  73  74 CALM      29.97S

STATION/POSITION SKY/WX   TEMP    WIND        PRES    WAVE   SWELL
                          AIR SEA DIR/SP/G            HT/PER HT/PER
                          (F)     (DEG/KT/KT) (MB)    (FT/S) (FT/S)
28.5N   80.2W              80 84  270/  6/  8 1014.2R
TRIDENT PIER               80 85  240/  5/  7 1014.2S
28.4N   80.5W                 85                N/A     1/ 9
27.5N   80.2W                 84                N/A     2/ 9

$$
FLZ050-056-061-142-242-148-248-149-249-151-251-155-255-
160-260-271500-
WEST CENTRAL FLORIDA

CITY           SKY/WX    TMP DP  RH WIND       PRES   REMARKS
CRYSTAL RIVER  FAIR      79  73  83 CALM      29.96S
INVERNESS      FAIR      79  73  83 CALM      29.97S
BROOKSVILLE      N/A     80  75  84 CALM      29.97S
CLEARWATER AIR FAIR      81  73  78 W3        29.96S
ST PETE CLEARW SUNNY     84  75  74 SW7       29.96S
TAMPA INTL     MOSUNNY   83  75  77 SW7       29.96S
TAMPA EXEC     SUNNY     86  75  70 W3        29.96S HX  95
PLANT CITY     SUNNY     82  75  78 SW3       29.98S
MACDILL AFB    SUNNY     86  79  78 SW6       29.96S HX 100
PETER O KNIGHT SUNNY     84  77  79 SW5       29.96S
ST PETERSBURG  MOSUNNY   83  73  72 W7        29.94S
SARASOTA       SUNNY     85  74  69 CALM      29.94S
VENICE         FAIR      84  70  61 CALM      29.96S

STATION/POSITION SKY/WX   TEMP    WIND        PRES    WAVE   SWELL
                          AIR SEA DIR/SP/G            HT/PER HT/PER
                          (F)     (DEG/KT/KT) (MB)    (FT/S) (FT/S)
27.3N   84.2W                 85                N/A     1/ 5
CLEARWATER BEACH           82 85  120/  2/  4 1014.6R
MIDDLE TAMPA BAY                  270/  3/  4 1014.8R
VENICE                     81 87   40/  3/  3 1013.8R

$$
FLZ066-069-070-075>078-162-262-165-265-271500-
SOUTHWEST FLORIDA AND KEYS

CITY           SKY/WX    TMP DP  RH WIND       PRES   REMARKS
PUNTA GORDA    SUNNY     82  73  74 CALM      29.98R
FT MYERS       SUNNY     83  71  67 CALM      29.96R
SOUTHWEST INTL SUNNY     83  72  69 CALM      29.96R
NAPLES         PTSUNNY   83  73  72 CALM      29.96R
MARATHON       CLOUDY    85  73  67 SE3       29.97R
KEY WEST NAS   TSTM      77  72  84 SW6       29.95R
KEY WEST INTL  LGT RAIN  77  70  79 SE8       29.96R

STATION/POSITION SKY/WX   TEMP    WIND        PRES    WAVE   SWELL
                          AIR SEA DIR/SP/G            HT/PER HT/PER
                          (F)     (DEG/KT/KT) (MB)    (FT/S) (FT/S)
NAPLES                        86              1013.8S
26.0N   85.6W              83 85  300/  2/  4 1015.0R   1/ 3
DRY TORTUGAS               83     340/  5/  6 1014.6R
SAND KEY                   80     110/ 17/ 21 1014.5R
LONG KEY                   83 84  130/  5/  5 1014.3R

$$
FLZ067-068-071>074-168-172>174-271500-
SOUTHEAST FLORIDA

CITY           SKY/WX    TMP DP  RH WIND       PRES   REMARKS
W PALM BEACH   CLOUDY    82  73  74 CALM      29.97R
BOCA RATON     MOSUNNY   81  75  83 CALM      29.97R
FT LAUDER-EXEC CLOUDY    82  73  74 CALM      29.96R
FT LAUDERDALE  CLOUDY    85  74  69 CALM      29.95R
POMPANO BEACH  CLOUDY    82  74  76 CALM      29.96R
PEMBROKE PINES CLOUDY    84  75  74 SE5       29.97R
OPA LOCKA      PTSUNNY   83  73  72 CALM      29.97R
MIAMI          PTSUNNY   83  74  74 CALM      29.96R
WEST KENDALL   CLOUDY    82  75  79 CALM      29.97R
HOMESTEAD      MOSUNNY   82  75  78 E2        29.96R

STATION/POSITION SKY/WX   TEMP    WIND        PRES    WAVE   SWELL
                          AIR SEA DIR/SP/G            HT/PER HT/PER
                          (F)     (DEG/KT/KT) (MB)    (FT/S) (FT/S)
PORT EVERGLADES            81     120/  2/  3 1014.3R
VIRGINIA KEY               83 90   40/  3/  4 1014.6R
FOWEY ROCKS                82 85  350/  3/  4 1014.9R
SETTLEMENT POINT           84     200/  6/  7 1015.6R

$$




USA.gov is the U.S. government's official web portal to all federal, state and local government web resources and services.